When you browse on this site, cookies collect data to enhance your experience and personalize the content and advertising you see.
Visit our Privacy Policy to learn more. By continuing to use the site, you agree to this use of cookies and data.
EN

Hourly Weather Lenina

Today, 4 August, Tuesday

Time Temperature Precipitation Wind Pressure Humidity
00:00 +20°C° 0 mm 1 mps 747 mmHg 60%
01:00 +19°C° 0 mm 1 mps 747 mmHg 62%
02:00 +19°C° 0 mm 1 mps 747 mmHg 64%
03:00 +18°C° 0 mm 1 mps 747 mmHg 69%
04:00 +18°C° 0 mm 1 mps 747 mmHg 69%
05:00 +18°C° 0 mm 1 mps 747 mmHg 70%
06:00 +18°C° 0 mm 1 mps 747 mmHg 71%
07:00 +19°C° 0 mm 2 mps 748 mmHg 64%
08:00 +21°C° 0 mm 2 mps 748 mmHg 58%
09:00 +24°C° 0 mm 2 mps 748 mmHg 49%
10:00 +25°C° 0 mm 3 mps 748 mmHg 45%
11:00 +26°C° 0 mm 3 mps 748 mmHg 41%
12:00 +27°C° 0 mm 3 mps 748 mmHg 36%
13:00 +28°C° 0 mm 3 mps 747 mmHg 35%
14:00 +28°C° 0 mm 3 mps 747 mmHg 34%
15:00 +29°C° 0 mm 3 mps 747 mmHg 32%
16:00 +29°C° 0 mm 3 mps 747 mmHg 33%
17:00 +28°C° 0 mm 3 mps 747 mmHg 34%
18:00 +28°C° 0 mm 4 mps 747 mmHg 35%
19:00 +26°C° 0 mm 4 mps 747 mmHg 39%
20:00 +24°C° 0 mm 3 mps 747 mmHg 44%
21:00 +21°C° 0 mm 3 mps 747 mmHg 49%
22:00 +20°C° 0 mm 3 mps 747 mmHg 52%
23:00 +19°C° 0 mm 2 mps 747 mmHg 55%

Tomorrow, 5 August, Wednesday

Time Temperature Precipitation Wind Pressure Humidity
00:00 +18°C° 0 mm 2 mps 746 mmHg 57%
01:00 +18°C° 0 mm 2 mps 746 mmHg 60%
02:00 +17°C° 0 mm 2 mps 747 mmHg 62%
03:00 +17°C° 0 mm 2 mps 747 mmHg 64%
04:00 +17°C° 0 mm 2 mps 747 mmHg 66%
05:00 +17°C° 0 mm 2 mps 747 mmHg 69%
06:00 +16°C° 0 mm 2 mps 747 mmHg 71%
07:00 +18°C° 0 mm 3 mps 747 mmHg 65%
08:00 +20°C° 0 mm 4 mps 747 mmHg 59%
09:00 +22°C° 0 mm 5 mps 747 mmHg 53%
10:00 +24°C° 0 mm 6 mps 747 mmHg 48%
11:00 +26°C° 0 mm 6 mps 747 mmHg 44%
12:00 +27°C° 0 mm 6 mps 747 mmHg 39%
13:00 +28°C° 0 mm 6 mps 746 mmHg 40%
14:00 +29°C° 0 mm 6 mps 746 mmHg 41%
15:00 +29°C° 0 mm 6 mps 746 mmHg 41%
16:00 +29°C° 0 mm 6 mps 746 mmHg 42%
17:00 +28°C° 0 mm 6 mps 746 mmHg 43%
18:00 +28°C° 0 mm 6 mps 746 mmHg 44%
19:00 +26°C° 0 mm 5 mps 746 mmHg 49%
20:00 +25°C° 0 mm 4 mps 746 mmHg 53%
21:00 +22°C° 0 mm 3 mps 746 mmHg 58%
22:00 +21°C° 0 mm 3 mps 746 mmHg 61%
23:00 +21°C° 0 mm 3 mps 746 mmHg 65%

Day after tomorrow, 6 August, Thursday

Time Temperature Precipitation Wind Pressure Humidity
00:00 +20°C° 0 mm 3 mps 746 mmHg 68%
01:00 +20°C° 0 mm 3 mps 746 mmHg 72%
02:00 +19°C° 0 mm 3 mps 746 mmHg 76%
03:00 +19°C° 0 mm 3 mps 746 mmHg 79%
04:00 +19°C° 0 mm 2 mps 746 mmHg 82%
05:00 +19°C° 0 mm 2 mps 747 mmHg 84%
06:00 +19°C° 0 mm 2 mps 747 mmHg 87%
07:00 +21°C° 0 mm 2 mps 747 mmHg 79%
08:00 +24°C° 0 mm 3 mps 747 mmHg 71%
09:00 +26°C° 0 mm 4 mps 747 mmHg 63%
10:00 +28°C° 0 mm 4 mps 747 mmHg 56%
11:00 +30°C° 0 mm 4 mps 747 mmHg 48%
12:00 +33°C° 0 mm 4 mps 747 mmHg 41%
13:00 +33°C° 0 mm 4 mps 747 mmHg 39%
14:00 +34°C° 0 mm 4 mps 747 mmHg 37%
15:00 +35°C° 0 mm 5 mps 747 mmHg 35%
16:00 +34°C° 0 mm 5 mps 747 mmHg 37%
17:00 +34°C° 0 mm 5 mps 747 mmHg 40%
18:00 +33°C° 0 mm 5 mps 747 mmHg 42%
19:00 +30°C° 0 mm 4 mps 747 mmHg 48%
20:00 +28°C° 0 mm 4 mps 747 mmHg 54%
21:00 +26°C° 0 mm 3 mps 747 mmHg 60%
22:00 +25°C° 0 mm 3 mps 747 mmHg 65%
23:00 +25°C° 0 mm 3 mps 747 mmHg 69%

7 August, Friday

Time Temperature Precipitation Wind Pressure Humidity
00:00 +24°C° 0 mm 3 mps 747 mmHg 73%
01:00 +22°C° 0 mm 3 mps 748 mmHg 76%
02:00 +22°C° 0 mm 3 mps 748 mmHg 79%
03:00 +21°C° 0 mm 3 mps 748 mmHg 81%
04:00 +21°C° 0 mm 3 mps 748 mmHg 82%
05:00 +21°C° 0 mm 3 mps 748 mmHg 82%
06:00 +21°C° 0 mm 3 mps 748 mmHg 83%
07:00 +22°C° 0 mm 3 mps 748 mmHg 74%
08:00 +25°C° 0 mm 4 mps 748 mmHg 66%
09:00 +27°C° 0 mm 5 mps 748 mmHg 57%
10:00 +29°C° 0 mm 5 mps 748 mmHg 50%
11:00 +30°C° 0 mm 5 mps 748 mmHg 42%
12:00 +32°C° 0 mm 5 mps 748 mmHg 35%
13:00 +33°C° 0 mm 5 mps 748 mmHg 34%
14:00 +33°C° 0 mm 5 mps 747 mmHg 32%
15:00 +33°C° 0 mm 5 mps 747 mmHg 31%
16:00 +33°C° 0 mm 5 mps 747 mmHg 33%
17:00 +32°C° 0 mm 5 mps 747 mmHg 36%
18:00 +30°C° 0 mm 5 mps 746 mmHg 38%
19:00 +29°C° 0 mm 4 mps 746 mmHg 43%
20:00 +27°C° 0 mm 3 mps 746 mmHg 49%
21:00 +25°C° 0 mm 2 mps 746 mmHg 54%
22:00 +24°C° 0 mm 3 mps 746 mmHg 59%
23:00 +24°C° 0 mm 3 mps 746 mmHg 64%

8 August, Saturday

Time Temperature Precipitation Wind Pressure Humidity
00:00 +22°C° 0 mm 3 mps 746 mmHg 69%
01:00 +21°C° 0 mm 3 mps 746 mmHg 75%
02:00 +21°C° 0 mm 3 mps 746 mmHg 80%
03:00 +20°C° 0 mm 3 mps 745 mmHg 86%
04:00 +20°C° 0 mm 3 mps 745 mmHg 85%
05:00 +20°C° 0 mm 3 mps 745 mmHg 85%
06:00 +20°C° 0 mm 4 mps 745 mmHg 84%
07:00 +21°C° 0 mm 4 mps 745 mmHg 79%
08:00 +22°C° 0 mm 4 mps 745 mmHg 73%
09:00 +25°C° 0 mm 5 mps 745 mmHg 67%
10:00 +26°C° 0 mm 5 mps 745 mmHg 62%
11:00 +27°C° 0 mm 5 mps 745 mmHg 57%
12:00 +28°C° 0 mm 6 mps 745 mmHg 52%
13:00 +29°C° 0 mm 6 mps 745 mmHg 48%
14:00 +29°C° 0 mm 6 mps 744 mmHg 45%
15:00 +30°C° 0 mm 6 mps 744 mmHg 41%
16:00 +29°C° 0 mm 6 mps 744 mmHg 41%
17:00 +29°C° 0 mm 6 mps 744 mmHg 42%
18:00 +28°C° 0 mm 6 mps 744 mmHg 42%
19:00 +26°C° 0 mm 6 mps 744 mmHg 46%
20:00 +25°C° 0 mm 5 mps 744 mmHg 50%
21:00 +22°C° 0 mm 5 mps 744 mmHg 54%
22:00 +21°C° 0 mm 4 mps 744 mmHg 56%
23:00 +20°C° 0 mm 4 mps 744 mmHg 58%

9 August, Sunday

Time Temperature Precipitation Wind Pressure Humidity
00:00 +19°C° 0 mm 4 mps 744 mmHg 61%
01:00 +18°C° 0 mm 4 mps 743 mmHg 64%
02:00 +18°C° 0 mm 4 mps 743 mmHg 68%
03:00 +17°C° 0 mm 4 mps 743 mmHg 71%
04:00 +17°C° 0 mm 4 mps 743 mmHg 72%
05:00 +16°C° 0 mm 3 mps 743 mmHg 73%
06:00 +16°C° 0 mm 3 mps 743 mmHg 74%
07:00 +18°C° 0 mm 4 mps 743 mmHg 66%
08:00 +20°C° 0 mm 5 mps 743 mmHg 58%
09:00 +22°C° 0 mm 6 mps 743 mmHg 50%
10:00 +24°C° 0 mm 6 mps 743 mmHg 46%
11:00 +26°C° 0 mm 6 mps 743 mmHg 41%
12:00 +27°C° 0 mm 6 mps 743 mmHg 37%
13:00 +27°C° 0 mm 6 mps 743 mmHg 35%
14:00 +28°C° 0 mm 6 mps 743 mmHg 33%
15:00 +28°C° 0 mm 6 mps 742 mmHg 31%
16:00 +28°C° 0 mm 6 mps 742 mmHg 33%
17:00 +27°C° 0 mm 6 mps 742 mmHg 34%
18:00 +27°C° 0 mm 6 mps 742 mmHg 36%
19:00 +25°C° 0 mm 5 mps 743 mmHg 41%
20:00 +22°C° 0 mm 4 mps 743 mmHg 46%
21:00 +20°C° 0 mm 4 mps 743 mmHg 51%
22:00 +19°C° 0 mm 3 mps 743 mmHg 55%
23:00 +19°C° 0 mm 3 mps 743 mmHg 58%
Show more